CAPE
1 1 0 2 32 36 79 30 157 54 87 37 39 52 13 0 0 0 0 0 2 8 11 10 2 2 0 0 0 1 1 2 3 2 1 2 2 1 1 0 0 0 1
9 33 5 38 61 181 79 45 135 59 6 0 0 0 4 1 0 0 0 0 0 0 0 2 1 1 1 0 0 0 1 2 3 1 1 1 1 1 0 0 1 1 0
12 53 41 36 47 46 9 129 155 8 0 0 0 0 0 2 0 0 0 0 0 0 0 0 0 0 0 0 1 1 1 1 1 0 1 0 1 0 0 0 1 0 1
264 143 58 77 36 7 14 20 10 1 0 0 0 0 0 0 0 0 0 0 0 0 0 0 0 0 0 0 0 1 1 1 1 2 1 1 1 0 0 1 0 1 1
335 134 77 50 57 11 1 0 0 0 0 0 0 0 0 0 0 0 0 0 0 0 0 0 0 0 0 0 0 0 0 0 0 0 1 1 0 0 0 1 1 1 1
170 127 21 2 18 0 0 0 0 0 0 0 0 0 0 0 0 0 0 0 0 0 0 0 0 0 0 0 0 0 0 0 0 0 0 0 0 0 0 1 1 1 1
59 76 0 0 0 0 0 0 0 0 0 0 0 0 0 0 0 0 0 0 0 0 0 0 0 0 0 0 0 0 0 0 0 0 0 0 0 0 0 1 1 1 1
1 0 0 0 0 0 0 0 0 0 0 0 0 0 0 0 0 0 0 0 0 0 0 0 0 0 0 0 0 0 0 0 0 0 0 0 0 0 0 0 0 1 1
0 0 0 0 0 0 0 0 0 0 0 0 0 0 0 0 0 0 0 0 0 0 0 0 0 0 0 0 0 0 0 0 0 0 0 0 0 0 0 0 0 1 2
0 0 0 0 0 0 0 0 0 0 0 0 0 0 0 0 0 0 0 0 0 0 0 0 0 0 0 0 0 0 0 0 0 0 0 0 0 0 0 0 0 0 1
0 0 0 0 0 0 0 0 0 0 0 0 0 0 0 0 0 0 0 0 0 0 0 0 0 0 0 0 0 0 0 0 0 0 0 0 0 0 0 0 0 1 1
0 0 0 0 0 0 0 0 0 0 0 0 0 0 0 0 0 0 0 0 0 0 0 0 0 0 0 0 0 0 0 0 0 0 0 0 0 0 0 0 0 0 1
0 0 0 0 0 0 0 0 0 0 0 0 0 0 0 0 0 0 0 0 0 0 0 0 0 0 0 0 0 0 0 0 0 0 0 0 0 0 0 0 0 0 0
0 0 0 0 0 0 0 0 0 0 0 0 0 0 0 0 0 0 0 0 0 0 0 0 0 0 0 0 0 0 0 0 0 0 0 0 0 0 0 0 0 0 0
0 0 0 0 0 0 0 0 0 0 0 0 0 0 0 0 0 0 0 0 0 0 0 0 0 0 0 0 0 0 0 0 0 0 0 0 0 0 0 0 0 0 0
0 0 0 0 0 0 0 0 0 0 0 0 0 0 0 0 0 0 0 0 0 0 0 0 0 0 0 0 0 0 0 0 0 0 0 0 0 0 0 0 0 0 0
0 0 0 0 0 0 0 0 0 0 0 0 0 0 0 0 0 0 0 0 0 0 0 0 0 0 0 0 0 0 0 0 0 0 0 0 0 0 0 0 0 0 0
0 0 0 0 0 0 0 0 0 0 0 0 0 0 0 0 0 0 0 0 0 0 0 0 0 0 0 0 0 0 0 0 0 0 0 0 0 0 0 0 0 0 0
0 0 0 0 0 0 0 0 0 0 0 0 0 0 0 0 0 0 0 0 0 0 0 0 0 0 0 0 0 0 0 0 0 0 0 0 0 0 0 0 0 0 0
0 0 0 0 0 0 0 0 0 0 0 0 0 0 0 0 0 0 0 0 0 0 0 0 0 0 0 0 0 0 0 0 0 0 0 0 0 0 0 0 0 0 0
0 0 0 0 0 0 0 0 0 0 0 0 0 0 0 0 0 0 0 0 0 0 0 0 0 0 0 0 0 0 0 0 0 0 0 0 0 0 0 0 0 0 0
1 2 2 0 0 0 0 0 0 0 0 0 0 0 0 0 0 0 0 0 0 0 0 0 0 0 0 0 0 0 0 0 0 0 0 0 0 0 0 0 0 0 0
3 1 0 0 0 0 0 0 0 0 0 0 0 0 0 0 0 0 0 0 0 0 0 0 0 0 0 0 0 0 0 0 0 0 0 0 0 0 0 0 0 0 0
0 0 0 0 0 0 0 0 0 0 0 0 0 0 0 0 0 0 0 0 0 0 0 0 0 0 0 0 0 0 0 0 0 0 0 0 0 0 0 0 0 0 0
0 0 0 0 0 0 0 0 0 0 0 0 0 0 0 0 0 0 0 0 0 0 0 0 0 0 0 0 0 0 0 0 0 0 0 0 0 0 0 0 0 0 0
0 0 0 0 0 0 0 0 0 0 0 0 0 0 0 0 0 0 0 0 0 0 0 0 0 0 0 0 0 0 0 0 0 0 0 0 0 0 0 0 0 0 0
CIN
-1 -1 0 -1 -1 -1 -30 -2 -3 -14 -14 -18 -18 -17 -18 0 0 0 0 0 -1 0 0 0 -1 -1 0 0 0 0 0 0 0 0 -1 0 0 0 0 0 0 0 0
-1 -2 -1 -3 -2 -19 -50 -1 -30 -2 -2 0 0 0 -1 -1 0 0 0 0 0 0 0 0 0 -1 0 0 0 -1 0 0 -1 0 0 -1 0 0 0 0 -1 0 0
-72 -62 -2 -1 -54 -46 -24 -25 -7 -13 0 0 0 0 -1 0 -2 0 0 0 0 0 0 0 0 0 0 0 0 -1 -1 0 0 0 0 0 0 0 -1 0 0 -1 -1
-2 -17 -55 -40 -41 -12 -4 -5 -8 -14 0 0 0 0 0 0 0 0 0 0 0 0 0 0 0 0 0 0 0 0 0 0 0 0 0 0 0 0 0 0 0 -1 0
-1 -35 -78 -84 -82 -3 -6 -21 0 0 0 0 0 0 0 0 0 0 0 0 0 0 0 0 0 0 0 0 0 0 0 0 0 0 0 0 0 0 0 0 0 -1 -1
-12 -28 -40 -15 -50 0 0 0 -1 0 0 0 0 0 0 0 0 0 0 0 0 0 0 0 0 0 0 0 0 0 0 0 0 0 0 0 0 0 0 -1 0 0 -1
-99 -74 0 0 0 0 0 0 0 0 0 0 0 0 0 0 0 0 0 0 0 0 0 0 0 0 0 0 0 0 0 0 0 0 0 0 0 0 0 -1 -1 -1 0
-32 0 0 0 0 0 0 0 0 0 0 0 0 0 0 0 0 0 0 0 0 0 0 0 0 0 0 0 0 0 0 0 0 0 0 0 0 0 0 0 -1 -1 0
0 0 0 0 0 0 0 0 0 0 0 0 0 0 0 0 0 0 0 0 0 0 0 0 0 0 0 0 0 0 0 0 0 0 0 0 0 0 0 0 0 0 -1
0 0 0 0 0 0 0 0 0 0 0 0 0 0 0 0 0 0 0 0 0 0 0 0 0 0 0 0 0 0 0 0 0 0 0 0 0 0 0 0 0 -1 0
0 0 0 0 0 0 0 0 0 0 0 0 0 0 0 0 0 0 0 0 0 0 0 0 0 0 0 0 0 0 0 0 0 0 0 0 0 0 0 0 0 0 -1
0 0 0 0 0 0 0 0 0 0 0 0 0 0 0 0 0 0 0 0 0 0 0 0 0 0 0 0 0 0 0 0 0 0 0 0 0 0 0 0 0 0 -1
0 0 0 0 0 0 0 0 0 0 0 0 0 0 0 0 0 0 0 0 0 0 0 0 0 0 0 0 0 0 0 0 0 0 0 0 0 0 0 0 0 0 0
0 0 0 0 0 0 0 0 0 0 0 0 0 0 0 0 0 0 0 0 0 0 0 0 0 0 0 0 0 0 0 0 0 0 0 0 0 0 0 0 0 0 0
0 0 0 0 0 0 0 0 0 0 0 0 0 0 0 0 0 0 0 0 0 0 0 0 0 0 0 0 0 0 0 0 0 0 0 0 0 0 0 0 0 0 0
0 0 0 0 0 0 0 0 0 0 0 0 0 0 0 0 0 0 0 0 0 0 0 0 0 0 0 0 0 0 0 0 0 0 0 0 0 0 0 0 0 0 0
0 0 0 0 0 0 0 0 0 0 0 0 0 0 0 0 0 0 0 0 0 0 0 0 0 0 0 0 0 0 0 0 0 0 0 0 0 0 0 0 0 0 0
0 0 0 0 0 0 0 0 0 0 0 0 0 0 0 0 0 0 0 0 0 0 0 0 0 0 0 0 0 0 0 0 0 0 0 0 0 0 0 0 0 0 0
0 0 0 0 0 0 0 0 0 0 0 0 0 0 0 0 0 0 0 0 0 0 0 0 0 0 0 0 0 0 0 0 0 0 0 0 0 0 0 0 0 0 0
0 0 0 0 0 0 0 0 0 0 0 0 0 0 0 0 0 0 0 0 0 0 0 0 0 0 0 0 0 0 0 0 0 0 0 0 0 0 0 0 0 0 0
0 0 0 0 0 0 0 0 0 0 0 0 0 0 0 0 0 0 0 0 0 0 0 0 0 0 0 0 0 0 0 0 0 0 0 0 0 0 0 0 0 0 0
0 0 0 0 0 0 0 0 0 0 0 0 0 0 0 0 0 0 0 0 0 0 0 0 0 0 0 0 0 0 0 0 0 0 0 0 0 0 0 0 0 0 0
0 0 0 0 0 0 0 0 0 0 0 0 0 0 0 0 0 0 0 0 0 0 0 0 0 0 0 0 0 0 0 0 0 0 0 0 0 0 0 0 0 0 0
0 0 0 0 0 0 0 0 0 0 0 0 0 0 0 0 0 0 0 0 0 0 0 0 0 0 0 0 0 0 0 0 0 0 0 0 0 0 0 0 0 0 0
0 0 0 0 0 0 0 0 0 0 0 0 0 0 0 0 0 0 0 0 0 0 0 0 0 0 0 0 0 0 0 0 0 0 0 0 0 0 0 0 0 0 0
0 0 0 0 0 0 0 0 0 0 0 0 0 0 0 0 0 0 0 0 0 0 0 0 0 0 0 0 0 0 0 0 0 0 0 0 0 0 0 0 0 0 0
Wind_Speed
24 25 17 22 20 18 14 12 15 14 15 15 16 16 17 17 18 18 19 19 19 20 21 21 23 24 25 26 25 26 26 27 27 28 29 29 30 30 31 32 33 34 35
12 8 13 11 11 11 12 13 14 15 15 15 16 17 17 17 18 17 17 19 21 22 22 23 24 25 25 26 26 26 26 27 27 28 29 30 31 31 32 33 34 35 36
4 6 9 9 10 10 12 13 13 13 14 15 16 16 17 17 16 16 16 16 18 21 22 22 23 24 25 25 25 26 26 27 28 29 29 30 31 32 33 34 36 37 38
5 6 7 9 10 12 12 12 12 13 13 14 15 16 16 16 16 16 15 15 15 18 21 22 23 23 24 25 25 26 27 27 28 29 30 31 32 33 35 36 37 37 39
5 6 7 8 10 10 11 11 11 11 12 13 14 15 15 15 15 15 15 16 17 18 18 20 21 22 23 24 25 26 27 28 29 29 31 32 33 35 36 37 38 38 39
5 5 6 7 7 8 9 10 11 11 11 12 13 14 15 14 14 14 15 16 17 18 18 17 15 20 21 23 25 26 27 28 29 30 32 33 34 35 36 37 39 39 40
5 6 6 7 8 9 10 10 9 9 10 11 12 14 15 13 13 13 14 15 16 18 18 19 19 18 18 20 24 27 28 29 30 31 32 33 34 36 37 38 39 40 41
6 6 7 7 7 8 8 7 8 8 8 7 10 12 13 12 12 13 14 14 16 16 17 19 19 19 20 21 22 26 29 30 31 32 32 33 35 36 37 39 40 41 42
7 7 7 8 8 9 8 7 6 6 7 4 9 12 13 13 10 12 12 14 14 16 16 17 19 19 20 21 21 26 29 30 31 32 33 34 36 37 38 39 40 41 42
9 9 9 9 9 8 8 7 5 5 6 7 8 8 14 12 11 13 12 13 14 14 16 17 18 19 20 21 21 26 27 29 31 32 33 35 36 37 39 40 41 42 43
11 11 10 10 10 10 10 8 7 6 6 8 9 8 8 10 12 13 12 13 13 14 14 16 18 19 20 21 22 26 26 29 31 32 33 35 36 38 40 41 42 42 43
12 12 12 12 12 12 11 10 9 7 8 8 7 6 6 7 9 11 13 11 13 14 14 15 17 19 20 22 22 26 24 28 30 31 34 35 37 38 40 41 42 42 44
12 13 13 14 14 13 12 11 10 9 8 8 7 7 8 10 13 11 12 10 11 13 15 15 18 19 20 21 23 26 21 27 29 31 34 36 37 38 40 41 42 43 44
14 14 15 15 15 14 13 13 12 11 9 8 8 9 9 10 11 11 10 9 11 13 14 17 16 19 19 21 23 25 21 29 28 31 35 36 37 39 40 40 41 43 44
16 14 15 16 15 14 14 14 14 12 10 9 9 9 9 10 10 9 9 8 10 15 14 15 16 17 19 20 23 23 24 27 25 29 34 36 37 38 39 40 42 43 45
17 13 13 12 13 13 15 15 13 13 10 9 9 7 8 10 10 9 9 8 11 13 15 14 16 17 19 20 22 23 24 26 23 28 35 36 36 38 38 39 41 42 46
11 10 11 12 9 13 16 16 11 11 9 10 8 7 8 8 9 9 10 10 10 12 12 15 14 16 18 21 23 24 25 26 26 29 35 36 37 38 37 38 39 42 45
10 11 12 13 14 11 14 15 12 10 10 10 9 8 8 8 9 9 10 11 12 12 10 11 14 16 18 20 22 24 25 26 28 31 32 35 37 37 38 37 39 41 45
9 9 11 12 13 12 13 12 12 11 10 9 8 7 7 7 9 9 9 9 10 11 11 11 14 16 18 21 23 24 25 27 28 28 32 35 36 37 40 39 41 40 48
8 10 11 10 12 15 13 12 11 11 10 9 7 6 6 6 8 7 8 9 9 10 11 12 13 15 18 20 22 24 26 28 29 29 32 33 35 36 39 42 41 47 48
11 7 8 4 8 9 15 11 9 8 8 8 6 5 7 9 9 10 7 8 8 9 10 11 13 15 18 20 23 24 26 29 29 29 34 34 36 37 39 40 42 46 47
12 11 14 9 8 2 3 9 9 8 1 1 1 2 7 7 8 9 10 11 12 8 10 11 13 15 17 19 21 24 26 29 31 30 34 35 35 38 38 39 41 42 43
14 12 12 9 11 10 6 4 4 5 4 3 4 5 7 7 6 8 9 9 12 13 14 12 12 14 16 19 21 23 25 27 29 30 32 31 35 37 38 37 37 38 41
15 14 12 10 9 8 6 6 6 4 5 6 7 8 7 6 4 5 6 8 9 10 12 13 13 13 16 18 20 21 22 26 26 30 29 30 35 36 37 35 34 38 42
15 13 12 11 11 8 6 7 7 5 7 8 7 7 6 6 5 4 6 7 9 11 11 13 14 14 15 17 20 21 24 27 30 32 29 35 34 38 37 33 35 42 39
16 15 14 13 11 10 8 8 8 8 9 9 8 7 8 7 6 6 8 8 9 10 10 11 11 13 13 14 17 18 22 26 29 30 30 37 37 44 39 33 41 40 40
Wind_Direction
142 154 120 140 136 104 94 17 53 40 32 25 24 27 26 30 24 23 18 20 27 34 33 31 24 21 19 17 16 12 9 6 5 4 5 6 6 4 2 359 357 355 353
89 51 94 59 32 357 45 45 58 51 26 28 25 26 29 34 38 39 36 28 25 26 29 28 24 22 21 20 18 14 11 9 9 8 6 4 3 2 1 358 356 354 351
337 27 68 39 43 22 37 39 31 27 26 20 21 21 24 26 42 49 46 40 29 18 19 21 21 20 20 18 16 13 10 8 6 5 4 4 3 1 359 355 353 350 349
335 332 26 54 53 73 60 48 37 31 27 25 22 22 21 22 23 24 26 31 30 26 20 20 20 18 15 13 12 10 8 6 5 3 3 2 0 357 355 353 352 351 350
4 18 42 35 71 53 27 39 38 39 28 26 24 22 23 25 27 23 24 20 17 17 24 24 24 21 18 16 13 11 8 6 4 2 360 359 356 354 354 353 351 350 349
344 350 1 15 29 23 20 20 17 18 22 29 29 23 18 18 22 21 19 16 16 16 15 24 35 24 23 17 14 10 7 5 2 0 357 355 354 354 353 351 350 349 349
329 336 348 353 351 354 360 7 12 19 18 24 21 15 13 21 21 19 18 17 15 12 15 18 16 21 24 24 13 8 4 360 360 358 355 354 353 352 351 351 350 349 349
310 324 334 344 351 356 3 18 21 25 23 50 25 19 8 10 13 11 13 13 10 15 17 16 14 15 13 10 10 6 360 357 356 354 353 353 352 350 351 350 350 349 349
303 317 327 334 344 351 356 5 12 13 7 32 6 0 0 353 16 10 10 9 10 8 13 16 12 12 11 9 8 2 358 356 355 354 353 352 351 349 350 350 350 350 350
294 304 311 320 329 342 348 351 360 6 7 351 352 351 344 2 355 355 0 359 5 8 10 11 10 10 7 7 13 4 0 358 355 353 352 351 350 349 350 350 350 350 349
286 295 304 311 318 327 330 335 339 338 342 343 342 344 347 349 348 351 352 351 355 0 9 9 6 5 5 3 3 1 2 359 356 354 353 351 350 350 350 350 350 350 350
283 290 297 303 308 316 323 324 324 328 333 336 344 351 353 352 351 350 350 352 350 351 2 6 3 1 1 1 4 360 5 1 358 355 353 352 352 351 351 351 351 351 350
281 287 293 297 301 307 316 317 316 321 326 330 331 336 341 339 344 349 351 357 356 356 351 357 0 1 1 2 0 358 8 2 359 357 354 353 354 353 352 352 352 351 351
280 287 290 292 295 301 308 309 310 314 320 322 322 327 334 334 339 342 346 353 353 351 352 352 1 359 2 2 2 359 8 358 360 358 356 355 355 354 353 353 353 353 352
280 283 288 289 292 297 299 302 304 309 316 318 319 325 334 340 347 356 354 351 348 343 341 348 351 2 3 4 1 1 1 358 2 360 357 356 357 356 355 356 355 355 354
283 287 288 293 294 298 294 294 302 305 313 313 317 327 336 344 354 359 360 357 345 342 341 356 353 358 3 3 3 2 2 360 5 1 357 357 357 357 357 357 356 356 355
273 287 296 285 284 291 290 293 303 302 307 306 317 325 336 355 352 356 359 360 357 350 348 352 359 1 2 360 358 359 1 1 2 360 356 356 357 357 358 358 358 357 357
270 282 292 296 292 286 281 287 298 298 298 300 306 321 335 350 353 356 358 357 360 7 8 1 360 360 359 359 358 358 359 359 358 356 360 358 357 358 358 359 358 358 358
269 284 294 292 291 287 281 281 288 293 293 296 304 319 332 344 345 350 355 3 8 10 10 6 358 358 358 357 356 359 360 358 359 0 359 359 360 360 360 359 358 360 356
258 281 298 294 296 284 281 276 284 286 289 293 306 319 329 340 344 353 352 358 3 5 4 2 359 357 357 357 359 358 358 360 359 1 0 0 0 0 360 359 1 357 357
264 277 289 269 305 285 273 275 283 285 288 296 310 321 328 331 343 343 349 355 359 359 359 356 356 356 355 355 357 358 357 357 359 2 358 1 0 0 0 1 1 359 359
265 274 286 286 283 310 260 284 288 292 231 231 287 329 326 335 341 345 354 356 345 348 348 351 353 351 356 357 358 358 358 357 358 360 357 359 2 1 2 2 1 1 1
262 270 279 272 273 278 269 248 256 287 275 270 279 302 309 314 318 324 335 343 340 340 346 349 353 356 357 357 357 357 358 358 356 358 359 1 3 2 2 2 2 2 2
262 265 269 266 270 277 248 244 252 274 277 279 288 291 293 297 303 313 318 331 331 340 342 348 350 357 358 359 359 358 359 356 358 359 1 360 0 1 0 2 4 4 1
261 263 265 260 271 277 227 209 219 264 273 279 281 277 280 280 276 277 298 313 318 325 336 340 349 354 357 359 358 359 358 356 356 357 2 357 359 356 360 5 6 1 0
261 265 266 264 267 275 235 219 223 274 276 279 284 282 288 278 260 253 289 296 302 313 324 334 342 344 349 352 357 359 357 355 356 357 359 355 357 356 358 5 359 1 0